WEATHER DATA

YESTERDAY
Time Temp. Dewp. Hum. Wind dir Wind speed Wind gust Bar. 1h Prec. 24h Prec.
00:07 19.7 12.5 63 270 0.8 1.4 1018.8 0.0000 0.0000
00:17 19.6 12.4 63 315 0.8 2.2 1019.1 0.0000 0.0000
00:27 19.4 12.2 63 323 0.8 1.4 1019.1 0.0000 0.0000
00:37 19.3 11.8 62 203 1.1 1.9 1019.4 0.0000 0.0000
00:47 19.2 11.8 62 213 0.8 1.4 1019.3 0.0000 0.0000
00:57 19.2 11.8 62 191 0.8 1.4 1019 0.0000 0.0000
01:08 19.2 11.8 62 322 0.8 1.4 1019.1 0.0000 0.0000
01:17 19.1 11.9 63 270 0.8 1.9 1019.1 0.0000 0.0000
01:27 18.9 11.7 63 186 0.8 1.9 1018.9 0.0000 0.0000
01:38 18.7 11.8 64 196 0.8 1.9 1019 0.0000 0.0000
01:48 18.6 11.9 65 196 0.8 1.4 1019 0.0000 0.0000
01:57 18.5 12 66 209 0.8 2.2 1018.8 0.0000 0.0000
02:07 18.4 12.2 67 185 0.8 2.2 1018.7 0.0000 0.0000
02:18 18.4 12.2 67 203 1.1 1.9 1018.9 0.0000 0.0000
02:28 18.3 12.1 67 197 0.8 2.2 1018.6 0.0000 0.0000
02:37 18.2 12.2 68 198 1.1 1.9 1018.7 0.0000 0.0000
02:48 18.1 12.3 69 194 1.1 2.5 1018.7 0.0000 0.0000
02:58 18 12.2 69 196 0.8 1.9 1018.7 0.0000 0.0000
03:08 17.9 11.9 68 181 0.8 1.4 1018.5 0.0000 0.0000
03:18 17.8 12 69 175 0.8 1.9 1018.4 0.0000 0.0000
03:28 17.8 11.8 68 196 0.8 1.9 1018.4 0.0000 0.0000
03:38 17.7 11.7 68 198 0.8 1.9 1018.4 0.0000 0.0000
03:48 17.6 11.6 68 191 0.8 1.9 1018.3 0.0000 0.0000
03:58 17.5 11.5 68 225 0.8 1.4 1018.4 0.0000 0.0000
04:08 17.5 11.5 68 203 0.8 1.9 1018.4 0.0000 0.0000
04:18 17.5 11.5 68 198 1.1 1.9 1018.5 0.0000 0.0000
04:28 17.5 11.5 68 225 0.8 2.5 1018.7 0.0000 0.0000
04:38 17.4 11.7 69 193 0.8 1.9 1018.5 0.0000 0.0000
04:48 17.4 11.7 69 243 0.8 1.9 1018.6 0.0000 0.0000
04:58 17.4 11.7 69 178 1.1 1.9 1018.4 0.0000 0.0000
05:08 17.4 11.7 69 184 0.8 2.5 1018.4 0.0000 0.0000
05:18 17.4 11.7 69 192 0.8 1.9 1018.3 0.0000 0.0000
05:28 17.4 11.7 69 213 0.8 1.4 1018.2 0.0000 0.0000
05:38 17.5 11.8 69 225 0.8 1.4 1018.3 0.0000 0.0000
05:48 17.4 11.7 69 188 0.8 1.9 1018.2 0.0000 0.0000
05:58 17.4 11.9 70 178 1.1 2.2 1018.1 0.0000 0.0000
06:08 17.4 11.7 69 190 0.8 1.9 1018.1 0.0000 0.0000
06:19 17.4 11.9 70 215 1.1 1.9 1018.1 0.0000 0.0000
06:28 17.3 11.8 70 176 1.1 2.2 1018.1 0.0000 0.0000
06:38 17.3 11.8 70 194 1.1 2.2 1018.1 0.0000 0.0000
06:49 17.3 11.8 70 183 1.1 2.8 1018.2 0.0000 0.0000
06:59 17.2 11.7 70 196 1.1 2.5 1018.2 0.0000 0.0000
07:08 17.2 11.7 70 182 1.1 2.5 1018.1 0.0000 0.0000
07:18 17.2 11.7 70 167 1.1 2.2 1018.2 0.0000 0.0000
07:29 17.2 11.7 70 184 1.1 2.2 1018.1 0.0000 0.0000
07:39 17.3 11.8 70 166 1.1 2.2 1018.3 0.0000 0.0000
07:48 17.4 11.9 70 185 1.1 2.2 1018.2 0.0000 0.0000
07:59 17.4 11.9 70 315 1.1 2.2 1018.5 0.0000 0.0000
08:09 17.5 12 70 341 1.1 2.5 1018.4 0.0000 0.0000
08:19 17.5 12 70 189 0.8 2.2 1018.6 0.0000 0.0000
08:29 17.6 12.1 70 178 0.8 1.4 1018.6 0.0000 0.0000
08:39 17.7 12.2 70 196 0.8 1.9 1018.6 0.0000 0.0000
08:49 17.8 12.3 70 194 0.8 1.9 1018.5 0.0000 0.0000
08:58 17.9 12.4 70 188 0.8 1.4 1018.6 0.0000 0.0000
09:09 18 12.2 69 209 0.8 1.9 1018.7 0.0000 0.0000
09:19 18.2 12.4 69 164 0.8 2.5 1018.8 0.0000 0.0000
09:29 18.4 12.6 69 198 0.8 1.9 1018.8 0.0000 0.0000
09:39 18.5 12.7 69 183 0.8 1.4 1019 0.0000 0.0000
09:49 18.7 12.9 69 341 0.8 1.9 1019.3 0.0000 0.0000
09:59 18.9 13.1 69 335 0.8 1.4 1018.8 0.0000 0.0000
10:09 19 13 68 171 0.8 1.1 1018.9 0.0000 0.0000
10:19 19.2 13.2 68 270 0.8 1.9 1019 0.0000 0.0000
10:29 19.5 13.4 68 321 0.8 1.9 1019 0.0000 0.0000
10:39 20 13.5 66 336 0.8 2.2 1018.9 0.0000 0.0000
10:49 20.4 13.6 65 124 0.8 1.4 1019 0.0000 0.0000
10:59 20.8 13.3 62 155 0.3 1.1 1019 0.0000 0.0000
11:09 21.2 13.6 62 78 0.8 1.9 1019.1 0.0000 0.0000
11:19 21.4 13.6 61 90 0.3 1.1 1019 0.0000 0.0000
11:30 21.6 13.8 61 135 0.3 1.1 1019.1 0.0000 0.0000
11:39 21.7 13.9 61 135 0.3 0.8 1019.3 0.0000 0.0000
11:49 21.9 13.8 60 163 0.8 1.1 1019.1 0.0000 0.0000
12:00 22.1 14 60 135 0.8 1.9 1019.1 0.0000 0.0000
12:10 22.2 14.1 60 138 0.8 1.4 1019.1 0.0000 0.0000
12:19 22.3 13.9 59 149 0.8 1.4 1018.9 0.0000 0.0000
12:29 22.4 14.3 60 90 0.3 1.4 1018.7 0.0000 0.0000
12:40 22.5 14.1 59 135 0.8 1.4 1018.7 0.0000 0.0000
12:50 22.6 14.2 59 130 0.8 1.4 1018.7 0.0000 0.0000
13:00 22.9 14.5 59 151 0.8 1.1 1018.7 0.0000 0.0000
13:10 23.2 14.8 59 139 0.8 2.2 1018.4 0.0000 0.0000
13:20 23.4 14.7 58 45 0.3 1.1 1018.4 0.0000 0.0000
13:30 23.6 14.6 57 8 0.8 2.5 1018.3 0.0000 0.0000
13:40 23.7 14.4 56 336 0.8 2.2 1018.1 0.0000 0.0000
13:51 23.9 14.3 55 0 0.8 1.4 1018.1 0.0000 0.0000
14:00 23.9 14.3 55 353 0.8 2.2 1018.1 0.0000 0.0000
14:10 24 14.7 56 346 0.8 1.1 1018.1 0.0000 0.0000
14:21 24 14.4 55 127 0.8 1.4 1018 0.0000 0.0000
14:31 24.1 14.2 54 144 0.8 1.4 1017.7 0.0000 0.0000
14:41 24.3 14.4 54 59 0.8 1.4 1017.7 0.0000 0.0000
14:50 24.4 14.5 54 113 0.8 1.9 1017.7 0.0000 0.0000
15:01 24.5 14.6 54 78 0.8 1.4 1017.5 0.0000 0.0000
15:11 24.7 14.8 54 90 0.3 1.4 1017.3 0.0000 0.0000
15:21 24.7 14.5 53 117 0.8 1.9 1017.3 0.0000 0.0000
15:31 24.8 14.6 53 111 0.8 1.4 1017.3 0.0000 0.0000
15:41 24.9 14.7 53 90 0.3 1.1 1017.3 0.0000 0.0000
15:51 25 15.1 54 102 0.8 1.9 1017.2 0.0000 0.0000
16:01 25 14.8 53 90 0.3 1.1 1017 0.0000 0.0000
16:12 25 14.8 53 105 0.8 1.4 1017.2 0.0000 0.0000
16:21 25 14.8 53 135 0.8 1.4 1017.1 0.0000 0.0000
16:31 25 15.1 54 135 0.8 2.2 1016.9 0.0000 0.0000
16:41 25.1 15.4 55 129 0.8 1.9 1016.9 0.0000 0.0000
16:52 25.1 15.1 54 108 0.8 1.4 1016.9 0.0000 0.0000
17:02 25.3 15 53 18 0.3 1.4 1016.9 0.0000 0.0000
17:11 25.5 14.9 52 147 0.8 2.5 1016.9 0.0000 0.0000
17:22 25.7 15.1 52 354 0.8 1.9 1016.8 0.0000 0.0000
17:32 25.7 15.1 52 158 0.8 1.9 1016.9 0.0000 0.0000
17:42 25.7 15.1 52 147 0.8 1.4 1016.7 0.0000 0.0000
17:52 25.7 15.1 52 164 0.8 1.9 1016.9 0.0000 0.0000
18:02 25.8 15.5 53 140 0.8 1.9 1016.8 0.0000 0.0000
18:12 25.7 15.1 52 110 0.8 1.9 1016.7 0.0000 0.0000
18:22 25.7 15.4 53 135 0.8 1.9 1016.7 0.0000 0.0000
18:33 25.6 15.3 53 111 0.8 1.9 1016.6 0.0000 0.0000
18:43 25.5 15.5 54 109 0.8 1.4 1016.6 0.0000 0.0000
18:52 25.4 15.4 54 123 0.8 1.9 1016.6 0.0000 0.0000
19:02 25.3 15.3 54 111 0.8 1.4 1016.6 0.0000 0.0000
19:13 25.2 15.2 54 127 0.8 1.4 1016.6 0.0000 0.0000
19:29 25.1 15.4 55 135 0.8 2.5 1016.6 0.0000 0.0000
19:39 24.9 15.2 55 111 1.1 1.9 1016.4 0.0000 0.0000
19:49 24.7 15.3 56 120 0.8 1.4 1016.4 0.0000 0.0000
20:00 24.7 15.6 57 124 1.1 2.5 1016.3 0.0000 0.0000
20:09 24.6 15.5 57 104 0.8 1.4 1016.1 0.0000 0.0000
20:19 24.4 15.1 56 129 1.1 3.3 1016 0.0000 0.0000
20:30 24.3 15 56 126 1.1 1.9 1016.1 0.0000 0.0000
20:40 24.2 14.9 56 131 1.1 2.5 1015.9 0.0000 0.0000
20:50 24 14.7 56 139 1.1 2.5 1016 0.0000 0.0000
21:00 23.9 14.9 57 138 0.8 2.2 1016 0.0000 0.0000
21:10 23.9 14.6 56 139 1.4 4.7 1015.8 0.0000 0.0000
21:20 23.7 14.7 57 144 0.8 1.9 1015.9 0.0000 0.0000
21:23 23.7 14.7 57 135 0.8 2.5 1016.1 0.0000 0.0000
21:33 23.6 14.9 58 149 0.8 1.9 1015.9 0.0000 0.0000
21:43 23.5 14.8 58 135 0.8 1.9 1016 0.0000 0.0000
21:53 23.4 14.7 58 321 0.8 1.9 1015.8 0.0000 0.0000
22:04 23.3 14.6 58 71 0.8 1.9 1015.7 0.0000 0.0000
22:13 23.2 14.8 59 333 0.8 1.4 1015.6 0.0000 0.0000
22:23 23.1 14.7 59 343 1.1 1.9 1015.7 0.0000 0.0000
22:33 23 14.8 60 321 0.8 1.9 1015.7 0.0000 0.0000
22:44 22.8 14.9 61 348 1.4 3.3 1015.9 0.0000 0.0000
22:54 22.5 15.1 63 270 0.8 1.4 1015.8 0.0000 0.0000
23:03 22 15.6 67 254 0.8 1.9 1015.7 0.0000 0.0000
23:14 21.8 15.6 68 315 1.1 2.2 1015.7 0.0000 0.0000
23:24 21.5 15.6 69 330 1.1 2.2 1015.7 0.0000 0.0000
23:34 21.3 15.6 70 322 1.4 2.5 1015.7 0.0000 0.0000
23:44 21.1 15.4 70 247 0.8 2.2 1015.9 0.0000 0.0000
23:54 20.7 15.3 71 296 0.8 1.9 1016 0.0000

DAY STATISTIC

2019-08-17
TEMPERATURE
AVERAGE
21.2
HIGH
25.8
18:02
LOW
17.2
06:59
PRESSURE
AVERAGE
1017.8
HIGH
1019.4
00:37
LOW
1015.6
22:13
DEWPOINT
AVERAGE
13.6
HIGH
15.6
20:00
LOW
11.5
03:58
HUMIDITY
AVERAGE
62
HIGH
71
23:54
LOW
52
17:11
WIND SPEED
AVERAGE
0.8
HIGH
1.4
21:10
WIND GUST
AVERAGE
1.9
HIGH
4.7
21:10
WIND DIRECTION
PREVAILING
S
32.2%
N
7.0
NE
1.4
E
12.6
SE
25.9
S
32.2
SW
7.0
W
3.5
NW
10.5
PRECIPITATION
RAIN HOUR
0.0
RAIN DAY
0.0
TEMPERATURE (°C)
LOW
17.2
HIGH
25.8
AVERAGE
21.2
PRESSURE (hpa)
LOW
1015.6
HIGH
1019.4
AVERAGE
1017.8
DEVICE